Results By Division


Marshman® Triathlon Presented by Kinetic PT

Race Date: Sunday September 14, 2008
Description: 1/4 Mile Swim~12.5 Mile Bike~2 Mile Run
Race Category: Triathlon
# Entrants in Division: 33

Choose:
 Division
Place
Overall
Place
NameCityStateRace AgeGenderDivisionTimeBib#
View 1 2 Ward, Scott Delran NJ 37 M 35-39 0:55:47 139
View 2 13 Allen, Joel Gilbertsville PA 36 M 35-39 1:00:29 144
View 3 14 Stigall, Stephen Berwyn PA 39 M 35-39 1:00:44 125
View 4 31 Woolery, Todd Media PA 35 M 35-39 1:03:51 107
View 5 49 Wright, John Abington PA 39 M 35-39 1:06:36 72
View 6 69 Delone, Michael Downingtown PA 39 M 35-39 1:08:28 39
View 7 85 Gardner, Geoffrey Ardmore PA 35 M 35-39 1:09:26 98
View 8 110 Macintyre, Michael Chester Springs PA 39 M 35-39 1:11:30 25
View 9 120 Hager, Glen Philadelphia PA 39 M 35-39 1:12:08 30
View 10 160 Vanic, Kevin Bethlehem PA 36 M 35-39 1:15:00 83
View 11 187 Shea, Michael Springfield PA 36 M 35-39 1:16:59 75
View 12 196 Brezski, Jason Pottstown PA 36 M 35-39 1:17:26 52
View 13 197 Karalius, Adam Pottstown PA 35 M 35-39 1:17:43 70
View 14 205 Wall, Mark Flourtown PA 39 M 35-39 1:18:25 47
View 15 207 Lemmy, Simon Downingtown PA 38 M 35-39 1:18:28 40
View 16 228 Riley, Mike Downingtown PA 39 M 35-39 1:19:42 272
View 17 231 Holden, Joseph Glenside PA 35 M 35-39 1:20:04 136
View 18 234 Joachim, Mike Philaelphia PA 39 M 35-39 1:20:09 97
View 19 238 Chambers, Patrick Bryn Mawr PA 38 M 35-39 1:20:25 48
View 20 242 Hewitt, John Ivyland PA 39 M 35-39 1:20:34 12
View 21 248 Kane, Jodi Hockessin DE 35 M 35-39 1:21:12 32
View 22 264 Folk, Timothy Souderton PA 38 M 35-39 1:22:21 104
View 23 274 Besz, Corey King Of Prussia PA 36 M 35-39 1:22:39 137
View 24 284 Siaton, Gerry Phoenixville PA 37 M 35-39 1:23:16 88
View 25 319 Donnelly, John Pottstown PA 35 M 35-39 1:26:44 35
View 26 353 Kalucki, Tom Chester Springs PA 38 M 35-39 1:29:10 65
View 27 383 Butler, Michael Mechanicsburg PA 38 M 35-39 1:31:53 131
View 28 413 Durkan, Niall West Chester PA 38 M 35-39 1:34:30 133
View 29 414 Bebee, Brian Exton PA 37 M 35-39 1:34:34 89
View 30 421 Friel, Paul Phoenixville PA 39 M 35-39 1:35:27 115
View 31 432 Device, Anthony Havertown PA 36 M 35-39 1:38:08 3
View 32 465 Hogarth, Robert Downingtown PA 36 M 35-39 1:47:25 6
View 33 468 Scott, Bill Accokeek MD 36 M 35-39 1:49:23 110